Columbia, MO

7:27 AM CST on November 23, 2017 (GMT -0600)
Columbia Regional

Weather History for KCOU - February, 2012

Change the Weather History Date:

Saturday, February 25, 2012

  Actual Average Record
Temperature  
Mean Temperature 34 °F 38 °F  
Max Temperature 43 °F 48 °F 74 °F (1981)
Min Temperature 24 °F 28 °F -1 °F (2003)
Degree Days  
Heating Degree Days 31 27  
Month to date heating degree days 657 777  
Since 1 July heating degree days 3278 3866  
Cooling Degree Days 0 0  
Month to date cooling degree days 0 0  
Year to date cooling degree days 0 0  
Moisture  
Dew Point 15 °F    
Average Humidity 61    
Maximum Humidity 92    
Minimum Humidity 29    
Precipitation  
Precipitation 0.00 in 0.09 in 1.45 in (1899)
Month to date precipitation 2.54 1.99  
Year to date precipitation 3.28 3.91  
Snow  
Snow 0.00 in 0.10 in 9.80 in (1993)
Month to date snowfall 3.7 4.3  
Since 1 July snowfall 6.6 15.7  
Snow Depth 0.00 in    
Sea Level Pressure  
Sea Level Pressure 30.26 in    
Wind  
Wind Speed 9 mph (West)    
Max Wind Speed 18 mph    
Max Gust Speed 24 mph    
Visibility 10 miles    
Events      
T = Trace of Precipitation, MM = Missing Value Source: NWS Daily Summary

Daily Weather History Graph

Daily Weather History Graph

Search for Another Location

Airport or City:

Trip Planner

Search our weather history database for the weather conditions in past years. The results will help you decide how hot, cold, wet, or windy it might be!

Date:

Astronomy

Feb. 25, 2012 Rise Set
Actual Time 6:47 AM CST 5:56 PM CST
Civil Twilight 6:20 AM CST 6:23 PM CST
Nautical Twilight 5:49 AM CST 6:54 PM CST
Astronomical Twilight 5:19 AM CST 7:25 PM CST
Moon 8:14 AM CST (2/25) 9:55 PM CST (2/25)
Length of Visible Light 12h 03m
Length of Day
11h 09m
Waxing Crescent, 14% of the Moon is Illuminated
Feb 25
Waxing Crescent
Feb 29
First Quarter
Mar 8
Full
Mar 14
Last Quarter
Mar 22
New

Hourly Weather History & Observations

Time (CST) Temp. Windchill Dew Point Humidity Pressure Visibility Wind Dir Wind Speed Gust Speed Precip Events Conditions
12:54 AM 30.9 °F 23.5 °F 28.0 °F 89% 30.20 in 10.0 mi West 8.1 mph - N/A   Clear
1:54 AM 30.9 °F 22.8 °F 26.1 °F 82% 30.21 in 10.0 mi WNW 9.2 mph - N/A   Clear
2:54 AM 30.2 °F 19.3 °F 21.2 °F 69% 30.21 in 10.0 mi WNW 15.0 mph - N/A   Clear
3:54 AM 28.9 °F 18.6 °F 19.9 °F 69% 30.25 in 10.0 mi WNW 12.7 mph - N/A   Partly Cloudy
4:40 AM 26.6 °F 14.3 °F 17.6 °F 69% 30.25 in 10.0 mi NW 16.1 mph - N/A   Mostly Cloudy
4:47 AM 26.6 °F 14.7 °F 15.8 °F 64% 30.25 in 10.0 mi NW 15.0 mph - N/A   Scattered Clouds
4:54 AM 27.0 °F 15.6 °F 15.1 °F 61% 30.28 in 10.0 mi NW 13.8 mph - N/A   Partly Cloudy
5:54 AM 26.1 °F 13.6 °F 12.0 °F 55% 30.30 in 10.0 mi NW 16.1 mph 23.0 mph N/A   Clear
6:54 AM 25.0 °F 15.5 °F 12.0 °F 58% 30.32 in 10.0 mi NW 9.2 mph - N/A   Clear
7:54 AM 26.1 °F 16.2 °F 14.0 °F 60% 30.35 in 10.0 mi NNW 10.4 mph - N/A   Clear
8:54 AM 28.0 °F 18.6 °F 15.1 °F 58% 30.37 in 10.0 mi NNW 10.4 mph - N/A   Clear
9:54 AM 30.0 °F 21.7 °F 14.0 °F 51% 30.37 in 10.0 mi NNW 9.2 mph - N/A   Clear
10:54 AM 33.1 °F 26.9 °F 14.0 °F 46% 30.37 in 10.0 mi NNW 6.9 mph - N/A   Clear
11:54 AM 35.1 °F - 12.0 °F 39% 30.35 in 10.0 mi Calm Calm - N/A   Clear
12:54 PM 36.0 °F 32.1 °F 12.9 °F 39% 30.32 in 10.0 mi SSW 4.6 mph - N/A   Clear
1:54 PM 39.9 °F 35.1 °F 12.9 °F 33% 30.30 in 10.0 mi SW 6.9 mph - N/A   Clear
2:54 PM 41.0 °F 37.1 °F 12.0 °F 31% 30.29 in 10.0 mi SW 5.8 mph - N/A   Clear
3:54 PM 42.1 °F 37.7 °F 12.0 °F 29% 30.27 in 10.0 mi South 6.9 mph - N/A   Clear
4:54 PM 42.1 °F 39.2 °F 12.0 °F 29% 30.25 in 10.0 mi SSW 4.6 mph - N/A   Clear
5:54 PM 37.0 °F 32.4 °F 15.1 °F 41% 30.23 in 10.0 mi SE 5.8 mph - N/A   Clear
6:54 PM 36.0 °F 29.6 °F 15.1 °F 43% 30.21 in 10.0 mi ESE 8.1 mph - N/A   Clear
7:54 PM 36.0 °F 29.6 °F 14.0 °F 41% 30.19 in 10.0 mi ESE 8.1 mph - N/A   Clear
8:54 PM 35.1 °F 27.9 °F 14.0 °F 42% 30.19 in 10.0 mi ESE 9.2 mph - N/A   Clear
9:54 PM 35.1 °F 26.9 °F 14.0 °F 42% 30.17 in 10.0 mi SE 11.5 mph - N/A   Clear
10:54 PM 34.0 °F 25.0 °F 12.0 °F 40% 30.15 in 10.0 mi SE 12.7 mph - N/A   Clear
11:54 PM 34.0 °F 26.0 °F 12.9 °F 42% 30.14 in 10.0 mi SE 10.4 mph - N/A   Clear